Location: Newark
(35.0033°N, 81.0878°W)
Time: 14:24:38
(UTC+00:00)

Envisat - Pass Details

Date: 06 August 2021
Orbit: 764 x 766 km, 98.2° (Epoch: 20 September)

Event Time Altitude Azimuth Distance (km) Brightness Sun altitude
Rises 10:00:40 0° 22° (NNE) 3,236 7.1 -7.8°
Reaches altitude 10° 10:03:09 10° 31° (NNE) 2,306 6.5 -7.3°
Maximum altitude 10:07:49 36° 98° (E) 1,201 4.7 -6.5°
Drops below altitude 10° 10:12:26 10° 164° (SSE) 2,291 5.4 -5.6°
Sets 10:14:54 0° 173° (S) 3,213 6.0 -5.2°
